sat.trackr.live / text

‹ back to catalog

STARLINK-34925

NORAD 65249 · 2025-179Q

PAYLOAD ACTIVE UNKNOWN

§ Identity

Operator
Country
US
Launch date
2025-08-18
Launch site
AFWTR
Launch vehicle
Mass (kg)
RCS (m²)

Purposes: comms

External: N2YO · Heavens-Above · Gunter

§ Orbital elements

Epoch: 2026-05-25T03:13:12.623232Z

Period
95.64 min
Inclination
97.4503°
Eccentricity
0.0001841
Mean motion
15.05649773 rev/d
Perigee alt
548.2 km
Apogee alt
550.8 km
Semi-major
6,927.6 km
B*
2.3504e-4
RAAN
187.9918°
Arg perigee
125.2749°
Mean anomaly
234.8651°
Rev number
4,332

§ Raw data

STARLINK-349251 65249U 25179Q   26145.13417388  .00003334  00000+0  23504-3 0  99922 65249  97.4503 187.9918 0001841 125.2749 234.8651 15.05649773 43321

JSON: /api/v1/satellites/65249 · /tle

For live sub-satellite position, see the globe view (requires WebGL).

§ Visibility from observer

Set your observer location to see the next 7 days of passes ≥ 10°. The values pass through the URL so the page stays shareable.

No JS? Fill the form by hand. The geolocation button needs JavaScript.